• In Uzbekistan
  • List of Countries
  • For 7 days
  • Water Temperature
  • Weather Map
  • Weather Widgets
  • user-avatar
    Login

    Hourly Weather Stepanakert

    Today, 18 October, Friday

    Time Temperature Precipitation Wind Pressure Humidity
    00:00 +14°C° 0 mm 0 mps 696 mmHg 73%
    01:00 +14°C° 0 mm 0 mps 696 mmHg 72%
    02:00 +13°C° 0 mm 0 mps 695 mmHg 71%
    03:00 +13°C° 0 mm 0 mps 695 mmHg 75%
    04:00 +13°C° 0 mm 0 mps 695 mmHg 72%
    05:00 +13°C° 0 mm 0 mps 695 mmHg 69%
    06:00 +13°C° 0 mm 0 mps 695 mmHg 66%
    07:00 +15°C° 0 mm 1 mps 696 mmHg 61%
    08:00 +18°C° 0 mm 1 mps 696 mmHg 55%
    09:00 +20°C° 0 mm 1 mps 696 mmHg 51%
    10:00 +22°C° 0 mm 1 mps 696 mmHg 49%
    11:00 +23°C° 0 mm 2 mps 696 mmHg 48%
    12:00 +24°C° 0 mm 2 mps 696 mmHg 46%
    13:00 +24°C° 0 mm 2 mps 695 mmHg 49%
    14:00 +23°C° 0 mm 2 mps 695 mmHg 51%
    15:00 +23°C° 0 mm 2 mps 694 mmHg 54%
    16:00 +22°C° 0 mm 1 mps 694 mmHg 60%
    17:00 +20°C° 0 mm 1 mps 694 mmHg 66%
    18:00 +19°C° 0 mm 1 mps 694 mmHg 72%
    19:00 +19°C° 0 mm 1 mps 694 mmHg 70%
    20:00 +18°C° 0 mm 1 mps 694 mmHg 67%
    21:00 +18°C° 0 mm 1 mps 694 mmHg 64%
    22:00 +18°C° 0 mm 1 mps 694 mmHg 62%
    23:00 +18°C° 0 mm 1 mps 694 mmHg 60%

    Tomorrow, 19 October, Saturday

    Time Temperature Precipitation Wind Pressure Humidity
    00:00 +16°C° 0 mm 1 mps 694 mmHg 58%
    01:00 +16°C° 0 mm 1 mps 694 mmHg 57%
    02:00 +16°C° 0 mm 1 mps 694 mmHg 56%
    03:00 +16°C° 0 mm 1 mps 694 mmHg 55%
    04:00 +15°C° 0 mm 1 mps 694 mmHg 54%
    05:00 +15°C° 0 mm 1 mps 694 mmHg 52%
    06:00 +15°C° 0 mm 1 mps 694 mmHg 51%
    07:00 +18°C° 0 mm 1 mps 694 mmHg 48%
    08:00 +20°C° 0 mm 1 mps 695 mmHg 45%
    09:00 +22°C° 0 mm 1 mps 695 mmHg 41%
    10:00 +23°C° 0 mm 1 mps 695 mmHg 42%
    11:00 +23°C° 0 mm 2 mps 695 mmHg 44%
    12:00 +24°C° 0 mm 2 mps 695 mmHg 45%
    13:00 +24°C° 0.1 mm 2 mps 695 mmHg 47%
    14:00 +24°C° 0.1 mm 2 mps 694 mmHg 50%
    15:00 +23°C° 0.1 mm 2 mps 694 mmHg 52%
    16:00 +21°C° 0.2 mm 2 mps 694 mmHg 58%
    17:00 +20°C° 0.2 mm 1 mps 694 mmHg 65%
    18:00 +19°C° 0.2 mm 1 mps 694 mmHg 71%
    19:00 +19°C° 0.1 mm 1 mps 694 mmHg 72%
    20:00 +18°C° 0.1 mm 1 mps 694 mmHg 73%
    21:00 +18°C° 0.1 mm 1 mps 695 mmHg 74%
    22:00 +15°C° 0.1 mm 0 mps 695 mmHg 75%
    23:00 +15°C° 0.1 mm 0 mps 695 mmHg 77%

    Day after tomorrow, 20 October, Sunday

    Time Temperature Precipitation Wind Pressure Humidity
    00:00 +15°C° 0.1 mm 0 mps 695 mmHg 78%
    01:00 +14°C° 0 mm 0 mps 695 mmHg 79%
    02:00 +14°C° 0 mm 0 mps 695 mmHg 80%
    03:00 +14°C° 0 mm 0 mps 695 mmHg 81%
    04:00 +13°C° 0 mm 0 mps 695 mmHg 81%
    05:00 +13°C° 0 mm 0 mps 695 mmHg 81%
    06:00 +13°C° 0 mm 0 mps 695 mmHg 81%
    07:00 +16°C° 0 mm 1 mps 696 mmHg 73%
    08:00 +18°C° 0 mm 1 mps 696 mmHg 66%
    09:00 +20°C° 0 mm 1 mps 697 mmHg 59%
    10:00 +20°C° 0 mm 2 mps 697 mmHg 55%
    11:00 +20°C° 0 mm 2 mps 696 mmHg 51%
    12:00 +21°C° 0 mm 3 mps 696 mmHg 47%
    13:00 +21°C° 0 mm 2 mps 696 mmHg 49%
    14:00 +21°C° 0 mm 2 mps 696 mmHg 50%
    15:00 +21°C° 0 mm 2 mps 695 mmHg 52%
    16:00 +19°C° 0 mm 2 mps 696 mmHg 58%
    17:00 +18°C° 0 mm 2 mps 696 mmHg 64%
    18:00 +18°C° 0 mm 1 mps 696 mmHg 70%
    19:00 +16°C° 0 mm 1 mps 696 mmHg 71%
    20:00 +16°C° 0 mm 1 mps 696 mmHg 73%
    21:00 +15°C° 0 mm 1 mps 696 mmHg 74%
    22:00 +15°C° 0 mm 1 mps 696 mmHg 73%
    23:00 +15°C° 0 mm 1 mps 696 mmHg 73%

    21 October, Monday

    Time Temperature Precipitation Wind Pressure Humidity
    00:00 +14°C° 0 mm 1 mps 696 mmHg 73%
    01:00 +14°C° 0 mm 1 mps 696 mmHg 68%
    02:00 +14°C° 0 mm 1 mps 696 mmHg 64%
    03:00 +13°C° 0 mm 1 mps 696 mmHg 59%
    04:00 +13°C° 0 mm 1 mps 696 mmHg 59%
    05:00 +13°C° 0 mm 1 mps 696 mmHg 59%
    06:00 +13°C° 0 mm 1 mps 696 mmHg 60%
    07:00 +14°C° 0 mm 1 mps 697 mmHg 55%
    08:00 +16°C° 0 mm 1 mps 697 mmHg 49%
    09:00 +19°C° 0 mm 1 mps 698 mmHg 44%
    10:00 +19°C° 0 mm 2 mps 698 mmHg 42%
    11:00 +20°C° 0 mm 2 mps 697 mmHg 39%
    12:00 +21°C° 0 mm 3 mps 697 mmHg 36%
    13:00 +20°C° 0 mm 3 mps 697 mmHg 35%
    14:00 +20°C° 0 mm 2 mps 697 mmHg 34%
    15:00 +20°C° 0 mm 2 mps 696 mmHg 33%
    16:00 +19°C° 0 mm 2 mps 696 mmHg 37%
    17:00 +18°C° 0 mm 1 mps 696 mmHg 41%
    18:00 +15°C° 0 mm 1 mps 696 mmHg 45%
    19:00 +15°C° 0 mm 1 mps 696 mmHg 46%
    20:00 +14°C° 0 mm 1 mps 696 mmHg 47%
    21:00 +14°C° 0 mm 1 mps 696 mmHg 48%
    22:00 +14°C° 0 mm 1 mps 696 mmHg 48%
    23:00 +13°C° 0 mm 1 mps 696 mmHg 49%

    22 October, Tuesday

    Time Temperature Precipitation Wind Pressure Humidity
    00:00 +13°C° 0 mm 1 mps 696 mmHg 49%
    01:00 +13°C° 0 mm 1 mps 696 mmHg 50%
    02:00 +13°C° 0 mm 1 mps 696 mmHg 50%
    03:00 +12°C° 0 mm 1 mps 696 mmHg 50%
    04:00 +12°C° 0 mm 1 mps 696 mmHg 50%
    05:00 +12°C° 0 mm 1 mps 696 mmHg 51%
    06:00 +12°C° 0 mm 1 mps 696 mmHg 51%
    07:00 +14°C° 0 mm 1 mps 696 mmHg 46%
    08:00 +15°C° 0 mm 1 mps 697 mmHg 41%
    09:00 +18°C° 0 mm 1 mps 697 mmHg 36%
    10:00 +19°C° 0 mm 1 mps 697 mmHg 35%
    11:00 +19°C° 0 mm 2 mps 697 mmHg 34%
    12:00 +20°C° 0 mm 2 mps 697 mmHg 34%
    13:00 +20°C° 0 mm 2 mps 696 mmHg 35%
    14:00 +20°C° 0 mm 2 mps 696 mmHg 37%
    15:00 +20°C° 0 mm 2 mps 696 mmHg 38%
    16:00 +18°C° 0 mm 2 mps 695 mmHg 43%
    17:00 +16°C° 0 mm 1 mps 695 mmHg 48%
    18:00 +14°C° 0 mm 0 mps 695 mmHg 54%
    19:00 +14°C° 0 mm 1 mps 695 mmHg 54%
    20:00 +14°C° 0 mm 1 mps 695 mmHg 54%
    21:00 +14°C° 0 mm 1 mps 695 mmHg 54%
    22:00 +14°C° 0 mm 1 mps 695 mmHg 55%
    23:00 +13°C° 0 mm 1 mps 695 mmHg 55%

    23 October, Wednesday

    Time Temperature Precipitation Wind Pressure Humidity
    00:00 +13°C° 0 mm 1 mps 695 mmHg 55%
    01:00 +13°C° 0 mm 1 mps 695 mmHg 56%
    02:00 +13°C° 0 mm 1 mps 695 mmHg 57%
    03:00 +12°C° 0 mm 1 mps 695 mmHg 57%
    04:00 +12°C° 0 mm 1 mps 694 mmHg 58%
    05:00 +12°C° 0 mm 1 mps 694 mmHg 59%
    06:00 +12°C° 0 mm 1 mps 694 mmHg 59%
    07:00 +14°C° 0 mm 1 mps 695 mmHg 55%
    08:00 +15°C° 0 mm 1 mps 695 mmHg 50%
    09:00 +18°C° 0 mm 1 mps 695 mmHg 45%
    10:00 +19°C° 0 mm 1 mps 695 mmHg 44%
    11:00 +19°C° 0 mm 2 mps 695 mmHg 43%
    12:00 +20°C° 0 mm 2 mps 695 mmHg 41%
    13:00 +20°C° 0 mm 2 mps 695 mmHg 42%
    14:00 +20°C° 0 mm 2 mps 694 mmHg 43%
    15:00 +20°C° 0 mm 2 mps 694 mmHg 44%
    16:00 +19°C° 0 mm 1 mps 694 mmHg 50%
    17:00 +18°C° 0 mm 1 mps 694 mmHg 56%
    18:00 +14°C° 0 mm 0 mps 694 mmHg 62%
    19:00 +14°C° 0 mm 0 mps 694 mmHg 63%
    20:00 +14°C° 0 mm 0 mps 695 mmHg 64%
    21:00 +14°C° 0 mm 1 mps 695 mmHg 64%
    22:00 +13°C° 0 mm 0 mps 695 mmHg 65%
    23:00 +13°C° 0 mm 0 mps 695 mmHg 66%
    Show more